This is the latest recevied weather packets stored in our database for station/object KD9IXX-13. If no packets are shown the sender has not sent any weather packets the latest 10 day(s).
| Time | Temp. | Humidity | Pressure | Rain* | Wind** | Luminosity | Snow |
|---|---|---|---|---|---|---|---|
| 1777559402 | 10° C | 75% | 1018.8 hPa | 0 mm | - | 203 W/m² | - |
| 1777559102 | 10.56° C | 72% | 1018.8 hPa | 0 mm | - | 262 W/m² | - |
| 1777558802 | 10.56° C | 73% | 1018.9 hPa | 0 mm | - | 350 W/m² | - |
| 1777558502 | 10° C | 75% | 1019 hPa | 0 mm | - | 538 W/m² | - |
| 1777558202 | 10° C | 76% | 1019 hPa | 0 mm | - | 225 W/m² | - |
| 1777557902 | 10° C | 75% | 1018.8 hPa | 0 mm | - | 615 W/m² | - |
| 1777557602 | 9.44° C | 78% | 1018.9 hPa | 0 mm | - | 542 W/m² | - |
| 1777557303 | 9.44° C | 80% | 1018.9 hPa | 0 mm | - | 500 W/m² | - |
| 1777557002 | 8.89° C | 80% | 1019 hPa | 0 mm | - | 495 W/m² | - |
| 1777556702 | 8.89° C | 83% | 1018.9 hPa | 0 mm | - | 462 W/m² | - |
| 1777556402 | 8.89° C | 83% | 1018.9 hPa | 0 mm | - | 451 W/m² | - |
| 1777556102 | 8.89° C | 83% | 1018.8 hPa | 0 mm | - | 441 W/m² | - |
| 1777555802 | 8.89° C | 85% | 1018.8 hPa | 0 mm | - | 439 W/m² | - |
| 1777555502 | 8.33° C | 86% | 1018.8 hPa | 0 mm | - | 450 W/m² | - |
| 1777555202 | 7.78° C | 91% | 1018.9 hPa | 0 mm | - | 722 W/m² | - |
| 1777554902 | 7.22° C | 99% | 1018.8 hPa | 0 mm | - | 146 W/m² | - |
| 1777554604 | 6.67° C | 99% | 1018.7 hPa | 0 mm | - | 129 W/m² | - |
| 1777554002 | 6.67° C | 99% | 1018.7 hPa | 0 mm | - | 104 W/m² | - |
| 1777553703 | 6.11° C | 99% | 1018.7 hPa | 0 mm | - | 99 W/m² | - |
| 1777553402 | 5.56° C | 99% | 1018.8 hPa | 0 mm | - | 94 W/m² | - |
| 1777553102 | 5.56° C | 99% | 1018.8 hPa | 0 mm | - | 90 W/m² | - |
| 1777552802 | 5° C | 99% | 1018.9 hPa | 0 mm | - | 90 W/m² | - |
| 1777552502 | 5° C | 99% | 1018.7 hPa | 0 mm | - | 88 W/m² | - |
| 1777552202 | 5° C | 99% | 1018.3 hPa | 0 mm | - | 98 W/m² | - |
| 1777551902 | 5° C | 99% | 1018.7 hPa | 0 mm | - | 98 W/m² | - |
* Rain latest hour (hover to see other rain measurements)
** Current wind speed in m/s (hover to see current wind gust speed)